• In Uzbekistan
  • List of Countries
  • For 7 days
  • Water Temperature
  • Satellite Maps
  • Weather Map
  • Weather Widgets
  • user-avatar
    Login

    Hourly Weather Bruchkobel

    Today, 24 January, Wednesday

    Time Temperature Precipitation Wind Pressure Humidity
    00:00 +6°C° 0.1 mm 4 mps 755 mmHg 88%
    01:00 +6°C° 0.1 mm 4 mps 755 mmHg 89%
    02:00 +6°C° 0.1 mm 4 mps 755 mmHg 90%
    03:00 +6°C° 0.1 mm 4 mps 755 mmHg 91%
    04:00 +7°C° 0.1 mm 4 mps 755 mmHg 92%
    05:00 +7°C° 0 mm 4 mps 755 mmHg 93%
    06:00 +7°C° 0 mm 4 mps 755 mmHg 93%
    07:00 +7°C° 0 mm 4 mps 755 mmHg 93%
    08:00 +7°C° 0 mm 4 mps 754 mmHg 92%
    09:00 +7°C° 0 mm 4 mps 754 mmHg 91%
    10:00 +8°C° 0 mm 4 mps 754 mmHg 90%
    11:00 +8°C° 0 mm 4 mps 754 mmHg 88%
    12:00 +10°C° 0 mm 4 mps 754 mmHg 86%
    13:00 +11°C° 0 mm 4 mps 753 mmHg 84%
    14:00 +11°C° 0 mm 4 mps 753 mmHg 84%
    15:00 +11°C° 0 mm 4 mps 752 mmHg 85%
    16:00 +11°C° 0 mm 4 mps 752 mmHg 85%
    17:00 +10°C° 0 mm 4 mps 752 mmHg 86%
    18:00 +10°C° 0 mm 4 mps 751 mmHg 87%
    19:00 +10°C° 0 mm 4 mps 751 mmHg 88%
    20:00 +10°C° 0 mm 4 mps 751 mmHg 86%
    21:00 +8°C° 0 mm 4 mps 751 mmHg 85%
    22:00 +8°C° 0 mm 4 mps 751 mmHg 83%
    23:00 +8°C° 0 mm 4 mps 750 mmHg 83%

    Tomorrow, 25 January, Thursday

    Time Temperature Precipitation Wind Pressure Humidity
    00:00 +8°C° 0 mm 4 mps 750 mmHg 83%
    01:00 +8°C° 0 mm 4 mps 750 mmHg 83%
    02:00 +8°C° 0 mm 4 mps 750 mmHg 82%
    03:00 +8°C° 0 mm 4 mps 750 mmHg 81%
    04:00 +8°C° 0 mm 4 mps 749 mmHg 81%
    05:00 +7°C° 0.1 mm 4 mps 749 mmHg 82%
    06:00 +7°C° 0.1 mm 4 mps 749 mmHg 83%
    07:00 +7°C° 0.1 mm 4 mps 749 mmHg 84%
    08:00 +7°C° 1 mm 4 mps 749 mmHg 85%
    09:00 +7°C° 1 mm 4 mps 749 mmHg 86%
    10:00 +7°C° 1 mm 4 mps 749 mmHg 87%
    11:00 +7°C° 0.5 mm 4 mps 749 mmHg 86%
    12:00 +8°C° 0.5 mm 4 mps 748 mmHg 85%
    13:00 +8°C° 0.5 mm 4 mps 748 mmHg 84%
    14:00 +9°C° 0.2 mm 3 mps 748 mmHg 84%
    15:00 +9°C° 0.2 mm 3 mps 748 mmHg 85%
    16:00 +9°C° 0.2 mm 2 mps 747 mmHg 86%
    17:00 +8°C° 0.6 mm 2 mps 747 mmHg 88%
    18:00 +8°C° 0.6 mm 2 mps 747 mmHg 90%
    19:00 +9°C° 0.6 mm 1 mps 747 mmHg 93%
    20:00 +8°C° 1 mm 1 mps 747 mmHg 93%
    21:00 +8°C° 1 mm 1 mps 747 mmHg 94%
    22:00 +8°C° 1 mm 1 mps 747 mmHg 94%
    23:00 +8°C° 0.7 mm 1 mps 747 mmHg 94%

    Day after tomorrow, 26 January, Friday

    Time Temperature Precipitation Wind Pressure Humidity
    00:00 +8°C° 0.7 mm 1 mps 747 mmHg 93%
    01:00 +7°C° 0.7 mm 2 mps 747 mmHg 93%
    02:00 +7°C° 0.3 mm 1 mps 747 mmHg 93%
    03:00 +7°C° 0.3 mm 1 mps 747 mmHg 93%
    04:00 +7°C° 0.3 mm 1 mps 747 mmHg 93%
    05:00 +7°C° 0.3 mm 1 mps 748 mmHg 93%
    06:00 +6°C° 0.3 mm 1 mps 748 mmHg 93%
    07:00 +6°C° 0.3 mm 1 mps 748 mmHg 93%
    08:00 +6°C° 0.2 mm 1 mps 749 mmHg 92%
    09:00 +6°C° 0.2 mm 1 mps 749 mmHg 92%
    10:00 +7°C° 0.2 mm 1 mps 750 mmHg 91%
    11:00 +7°C° 0.1 mm 1 mps 750 mmHg 88%
    12:00 +7°C° 0.1 mm 1 mps 750 mmHg 86%
    13:00 +8°C° 0.1 mm 1 mps 751 mmHg 83%
    14:00 +8°C° 0 mm 1 mps 751 mmHg 83%
    15:00 +8°C° 0 mm 1 mps 751 mmHg 84%
    16:00 +8°C° 0 mm 1 mps 751 mmHg 84%
    17:00 +7°C° 0 mm 1 mps 752 mmHg 86%
    18:00 +6°C° 0 mm 1 mps 752 mmHg 88%
    19:00 +6°C° 0 mm 1 mps 753 mmHg 90%
    20:00 +6°C° 0 mm 1 mps 753 mmHg 90%
    21:00 +5°C° 0 mm 1 mps 754 mmHg 91%
    22:00 +5°C° 0 mm 1 mps 754 mmHg 91%
    23:00 +5°C° 0 mm 1 mps 755 mmHg 91%

    27 January, Saturday

    Time Temperature Precipitation Wind Pressure Humidity
    00:00 +4°C° 0 mm 0 mps 755 mmHg 91%
    01:00 +4°C° 0 mm 0 mps 756 mmHg 91%
    02:00 +3°C° 0 mm 0 mps 756 mmHg 92%
    03:00 +3°C° 0 mm 0 mps 756 mmHg 92%
    04:00 +3°C° 0 mm 0 mps 756 mmHg 92%
    05:00 +4°C° 0 mm 1 mps 757 mmHg 92%
    06:00 +3°C° 0 mm 1 mps 757 mmHg 92%
    07:00 +3°C° 0 mm 1 mps 758 mmHg 92%
    08:00 +4°C° 0 mm 1 mps 759 mmHg 90%
    09:00 +4°C° 0 mm 1 mps 759 mmHg 88%
    10:00 +5°C° 0 mm 1 mps 760 mmHg 86%
    11:00 +6°C° 0 mm 1 mps 760 mmHg 82%
    12:00 +7°C° 0 mm 1 mps 760 mmHg 77%
    13:00 +8°C° 0 mm 1 mps 760 mmHg 72%
    14:00 +8°C° 0 mm 1 mps 761 mmHg 73%
    15:00 +7°C° 0 mm 0 mps 761 mmHg 74%
    16:00 +7°C° 0 mm 0 mps 761 mmHg 75%
    17:00 +6°C° 0 mm 0 mps 762 mmHg 78%
    18:00 +5°C° 0 mm 0 mps 762 mmHg 82%
    19:00 +4°C° 0 mm 0 mps 763 mmHg 86%
    20:00 +3°C° 0 mm 0 mps 763 mmHg 86%
    21:00 +3°C° 0 mm 0 mps 763 mmHg 87%
    22:00 +3°C° 0 mm 0 mps 764 mmHg 88%
    23:00 +3°C° 0 mm 0 mps 764 mmHg 89%

    28 January, Sunday

    Time Temperature Precipitation Wind Pressure Humidity
    00:00 +3°C° 0 mm 0 mps 764 mmHg 89%
    01:00 +2°C° 0 mm 0 mps 764 mmHg 90%
    02:00 +2°C° 0 mm 0 mps 764 mmHg 90%
    03:00 +2°C° 0 mm 0 mps 764 mmHg 91%
    04:00 +2°C° 0 mm 0 mps 764 mmHg 91%
    05:00 +3°C° 0 mm 1 mps 765 mmHg 91%
    06:00 +3°C° 0 mm 1 mps 765 mmHg 91%
    07:00 +3°C° 0 mm 1 mps 765 mmHg 91%
    08:00 +3°C° 0 mm 1 mps 765 mmHg 89%
    09:00 +4°C° 0 mm 1 mps 766 mmHg 86%
    10:00 +5°C° 0 mm 1 mps 766 mmHg 83%
    11:00 +5°C° 0 mm 2 mps 766 mmHg 79%
    12:00 +6°C° 0 mm 2 mps 766 mmHg 74%
    13:00 +7°C° 0 mm 2 mps 765 mmHg 70%
    14:00 +7°C° 0 mm 2 mps 765 mmHg 71%
    15:00 +7°C° 0 mm 2 mps 765 mmHg 72%
    16:00 +8°C° 0 mm 1 mps 765 mmHg 74%
    17:00 +7°C° 0 mm 1 mps 765 mmHg 76%
    18:00 +6°C° 0 mm 1 mps 765 mmHg 79%
    19:00 +6°C° 0 mm 1 mps 765 mmHg 82%
    20:00 +5°C° 0 mm 1 mps 765 mmHg 82%
    21:00 +5°C° 0 mm 1 mps 765 mmHg 83%
    22:00 +5°C° 0 mm 1 mps 765 mmHg 83%
    23:00 +5°C° 0 mm 1 mps 765 mmHg 84%

    29 January, Monday

    Time Temperature Precipitation Wind Pressure Humidity
    00:00 +5°C° 0 mm 1 mps 765 mmHg 84%
    01:00 +5°C° 0 mm 1 mps 765 mmHg 85%
    02:00 +5°C° 0 mm 1 mps 765 mmHg 86%
    03:00 +5°C° 0 mm 1 mps 765 mmHg 86%
    04:00 +5°C° 0 mm 1 mps 765 mmHg 87%
    05:00 +5°C° 0 mm 1 mps 765 mmHg 88%
    06:00 +4°C° 0 mm 2 mps 764 mmHg 89%
    07:00 +4°C° 0 mm 2 mps 764 mmHg 90%
    08:00 +5°C° 0 mm 2 mps 764 mmHg 90%
    09:00 +5°C° 0 mm 2 mps 764 mmHg 89%
    10:00 +6°C° 0 mm 2 mps 764 mmHg 89%
    11:00 +6°C° 0 mm 2 mps 764 mmHg 88%
    12:00 +7°C° 0 mm 3 mps 764 mmHg 87%
    13:00 +8°C° 0 mm 3 mps 764 mmHg 86%
    14:00 +8°C° 0 mm 3 mps 763 mmHg 86%
    15:00 +8°C° 0 mm 2 mps 763 mmHg 87%
    16:00 +8°C° 0 mm 2 mps 763 mmHg 87%
    17:00 +8°C° 0 mm 2 mps 763 mmHg 89%
    18:00 +7°C° 0 mm 2 mps 762 mmHg 91%
    19:00 +7°C° 0 mm 2 mps 762 mmHg 92%
    20:00 +7°C° 0 mm 2 mps 762 mmHg 93%
    21:00 +7°C° 0 mm 2 mps 762 mmHg 93%
    22:00 +7°C° 0 mm 2 mps 762 mmHg 93%
    23:00 +7°C° 0 mm 2 mps 762 mmHg 93%
    Show more